Location: Newark
(54.4333°N, 18.5500°E)
Time: 22:49:46
(UTC+00:00)

Envisat - Pass Details

Date: 12 December 2019
Orbit: 764 x 766 km, 98.1° (Epoch: 18 January)

Event Time Altitude Azimuth Distance (km) Brightness Sun altitude
Rises 16:23:40 0° 163° (SSE) 3,224 6.2 -16.4°
Reaches altitude 10° 16:25:57 10° 163° (SSE) 2,302 5.5 -16.7°
Maximum altitude 16:31:03 88° 255° (WSW) 775 3.0 -17.4°
Drops below altitude 10° 16:36:10 10° 345° (NNW) 2,318 5.5 -18.1°
Sets 16:38:29 0° 345° (NNW) 3,249 6.3 -18.5°
